Location: Hobi?a Gr?di?te
(45.4833°N, 22.7833°E)
Time: 05:06:20
(UTC+00:00)

Cosmos 44 - Pass Details

Date: 28 January 2023
Orbit: 582 x 777 km, 65.1° (Epoch: 29 March)

Event Time Altitude Azimuth Distance (km) Brightness Sun altitude
Rises 16:43:27 0° 220° (SW) 2,793 7.3 -13.1°
Reaches altitude 10° 16:45:39 10° 222° (SW) 1,905 6.4 -13.5°
Maximum altitude 16:49:55 71° 307° (NW) 637 3.2 -14.2°
Enters shadow 16:53:49 13° 31° (NNE) 1,775 5.0 -14.9°
